This is the latest recevied weather packets stored in our database for station/object WA4ORT. If no packets are shown the sender has not sent any weather packets the latest 10 day(s).
| Time | Temp. | Humidity | Pressure | Rain* | Wind** | Luminosity | Snow |
|---|---|---|---|---|---|---|---|
| 1777557421 | 20.56° C | - | - | 0 mm | 0 m/s | - | - |
| 1777556526 | 20° C | - | - | 0 mm | 1.79 m/s, 311° | - | - |
| 1777555632 | 20° C | - | - | 0 mm | 1.34 m/s, 302° | - | - |
| 1777554733 | 20° C | - | - | 0 mm | 1.79 m/s, 342° | - | - |
| 1777553840 | 20° C | - | - | 0 mm | 2.24 m/s, 302° | - | - |
| 1777552944 | 19.44° C | - | - | 0 mm | 2.24 m/s, 304° | - | - |
| 1777552046 | 20° C | - | - | 0 mm | 1.79 m/s, 318° | - | - |
| 1777551152 | 20° C | - | - | 0 mm | 3.13 m/s, 300° | - | - |
| 1777550257 | 20° C | - | - | 0 mm | 1.79 m/s, 300° | - | - |
| 1777549359 | 20° C | - | - | 0 mm | 2.68 m/s, 308° | - | - |
| 1777548465 | 20° C | - | - | 0 mm | 2.24 m/s, 267° | - | - |
| 1777547570 | 20° C | - | - | 0 mm | 2.24 m/s, 308° | - | - |
| 1777546672 | 20.56° C | - | - | 0 mm | 1.79 m/s, 285° | - | - |
| 1777545778 | 20.56° C | - | - | 0 mm | 3.58 m/s, 302° | - | - |
| 1777544883 | 20.56° C | - | - | 0 mm | 1.79 m/s, 288° | - | - |
| 1777543985 | 20.56° C | - | - | 0 mm | 0.89 m/s, 302° | - | - |
| 1777543090 | 20.56° C | - | - | 0 mm | 1.79 m/s, 274° | - | - |
| 1777542196 | 20.56° C | - | - | 0 mm | 1.79 m/s, 271° | - | - |
| 1777541298 | 20° C | - | - | 0 mm | 0 m/s | - | - |
| 1777540403 | 20° C | - | - | 0 mm | 0.45 m/s, 253° | - | - |
| 1777539509 | 20° C | - | - | 0 mm | 0 m/s | - | - |
| 1777538611 | 20° C | - | - | 0 mm | 0 m/s | - | - |
| 1777537716 | 20° C | - | - | 0 mm | 2.68 m/s, 297° | - | - |
| 1777536822 | 20.56° C | - | - | 0 mm | 0 m/s | - | - |
| 1777535924 | 21.11° C | - | - | 0 mm | 0 m/s | - | - |
* Rain latest hour (hover to see other rain measurements)
** Current wind speed in m/s (hover to see current wind gust speed)